Regional Weather Roundup
Issued by NWS Northern Indiana

Home | Current Version | Previous Version | Graphics & Text | Print | Product List | Glossary On
Versions: 1 2 3 4 5 6 7 8 9 10 11 12 13 14 15 16 17 18 19 20 21 22 23 24 25 26 27 28 29 30 31 32 33 34 35 36 37 38 39 40 41 42 43 44 45 46 47 48 49 50
000
ASUS43 KIWX 041900
RWRIWX

KIWX WEATHER ROUNDUP
NATIONAL WEATHER SERVICE NORTHERN INDIANA
200 PM EST WED MAR 04 2015

NOTE: "FAIR" INDICATES FEW OR NO CLOUDS BELOW 12,000 FEET WITH NO
SIGNIFICANT WEATHER AND/OR OBSTRUCTIONS TO VISIBILITY.

* THESE STATIONS ARE NOT UNDER NWS QUALITY CONTROL. THEY ALSO MAY NOT
  REPORT WEATHER SUCH AS PRECIPITATION OR FOG.

INZ001>027-042000-
NORTHERN INDIANA

CITY           SKY/WX    TMP DP  RH WIND       PRES   REMARKS
SOUTH BEND     CLOUDY    24  13  62 NW20      30.09R WCI  10
GOSHEN         CLOUDY    24  17  74 NW18      30.05R WCI  10
ANGOLA*        PTSUNNY   27  18  69 NW16      30.00S WCI  14
FORT WAYNE     CLOUDY    31  22  69 W13       30.02F WCI  21

$$
INZ028>050-042000-
CENTRAL INDIANA

CITY           SKY/WX    TMP DP  RH WIND       PRES   REMARKS
LAFAYETTE      CLOUDY    20  14  77 W13       30.14R WCI   7
KOKOMO*          N/A    N/A N/A N/A MISG        N/A
MUNCIE*        CLOUDY    30  25  81 NW12      30.02F HAZE    WCI  20
INDIANAPOLIS   CLOUDY    27  20  75 NW14      30.06F WCI  16

$$
MIZ043>046-050>051-056>058-064>065-071>073-077>080-042000-
SOUTHWEST LOWER MICHIGAN

CITY           SKY/WX    TMP DP  RH WIND       PRES   REMARKS
BATTLE CREEK   PTSUNNY   27  13  55 W18       30.01S WCI  14
BENTON HARBOR  CLOUDY    20  11  68 NW10G18   30.10R WCI   9
COLDWATER*     CLOUDY    27  14  59 W15       29.99F WCI  15
HILLSDALE*     CLOUDY    28  17  62 W15G23    29.97F WCI  16
HOLLAND        CLOUDY    20   9  62 NW17G28   30.08S WCI   5
GRAND RAPIDS   PTSUNNY   23  11  60 W16G25    30.04R WCI  10
KALAMAZOO      PTSUNNY   25  13  60 W17       30.04S WCI  12
STURGIS*       CLOUDY    25  16  68 NW13G20   30.01S WCI  13
THREE RIVERS*  FAIR      24  13  62 W15G25    30.03F WCI  12

$$
OHZ001>008-015>018-024>025-042000-
NORTHWEST OHIO

CITY           SKY/WX    TMP DP  RH WIND       PRES   REMARKS
DEFIANCE       CLOUDY    32  20  61 W15       30.01R WCI  22
FINDLAY        CLOUDY    33  26  75 W15       29.98F WCI  23
TOLEDO EXPRESS CLOUDY    33  22  63 W17       29.98R WCI  22
TOLEDO METCALF CLOUDY    34  22  61 W14       29.99R WCI  25
LIMA           CLOUDY    33  25  72 W9        29.99S HAZE    WCI  25

$$
AND FOR LAKE MICHIGAN COASTAL AND OPEN LAKE BUOY OBSERVATIONS

STATION/POSITION TEMP    WIND        PRES    VSBY  WAVE
                 AIR SEA DIR/SP/G                  HT/PER
                 (F)     (DEG/KT/KT) (MB)    (MI)  (FT/S)
CALUMET HARBOR    22     290/ 11/ 16 1019.1S
MICHIGAN CITY     22     310/ 16/ 20   N/A
SAINT JOSEPH      22     300/ 15/ 18 1020.3R

$$
&&


USA.gov is the U.S. government's official web portal to all federal, state and local government web resources and services.